W1LH-10 Weather Reports


Display with metric or nautical units.
time (UTC)temp
F
wind
direction
speed
MPH
gust
MPH
rain 1hr
in
rain 24hr
in
rain mn
in
humidity
%
barometer
mb
20260508080347 35 5 6.0 0.0 0.00 0.00 0.00 85 1003.1
20260508073348 37 75 6.0 0.0 0.00 0.00 0.00 83 1003.1
20260508070326 38 29 5.0 0.0 0.00 0.00 0.00 79 1003.2
20260508063317 39 9 5.0 0.0 0.00 0.00 0.00 75 1003.3
20260508060337 39 346 5.0 0.0 0.00 0.00 0.00 74 1003.5
20260508053346 40 297 5.0 0.0 0.00 0.00 0.00 70 1003.8
20260508050320 40 331 5.0 0.0 0.00 0.00 0.00 69 1004.1
20260508043339 40 282 5.0 0.0 0.00 0.00 0.00 69 1004.2
20260508040337 41 324 5.0 0.0 0.00 0.00 0.27 68 1004.1
20260508033319 41 360 6.0 0.0 0.00 0.00 0.27 68 1004.2
20260508030315 41 57 4.0 0.0 0.00 0.00 0.27 68 1004.2
20260508023331 42 5 5.0 0.0 0.00 0.00 0.27 68 1004.2
20260508020324 42 22 6.0 0.0 0.00 0.00 0.27 68 1004.2
20260508013317 43 360 5.0 0.0 0.00 0.00 0.27 69 1004.2
20260508010353 44 284 5.0 0.0 0.00 0.00 0.27 74 1004.1
20260508003327 46 355 4.0 0.0 0.00 0.00 0.27 78 1004.1
20260508000327 47 60 6.0 0.0 0.00 0.00 0.27 79 1003.5
20260507233319 47 35 3.0 0.0 0.00 0.00 0.27 81 1003.1
20260507230331 49 35 6.0 0.0 0.00 0.00 0.27 78 1002.3
20260507223326 49 69 5.0 0.0 0.00 0.00 0.27 79 1002.4
20260507220325 48 331 5.0 0.0 0.00 0.00 0.27 80 1002.4
20260507213328 49 346 5.0 0.0 0.00 0.00 0.27 77 1002.3
20260507210327 50 360 5.0 0.0 0.00 0.00 0.27 75 1002.2
20260507203325 53 72 4.0 0.0 0.00 0.00 0.27 62 1001.7
20260507200343 54 269 4.0 0.0 0.00 0.00 0.27 55 1001.4
20260507193330 55 11 4.0 0.0 0.00 0.00 0.27 54 1001.4
20260507190326 57 360 2.0 0.0 0.00 0.00 0.27 51 1001.5
20260507183317 56 254 5.0 0.0 0.00 0.00 0.27 51 1001.8
20260507180339 55 284 6.0 0.0 0.00 0.00 0.27 53 1002.1
20260507173332 54 360 5.0 0.0 0.00 0.00 0.27 62 1002.1
20260507170328 55 286 4.0 0.0 0.00 0.00 0.27 62 1002.3
20260507163323 54 331 5.0 0.0 0.00 0.00 0.27 68 1002.9
20260507160341 52 296 3.0 0.0 0.00 0.00 0.27 71 1003.0
20260507153348 51 78 3.0 0.0 0.00 0.00 0.27 78 1003.3
20260507150332 49 53 5.0 0.0 0.00 0.00 0.27 80 1003.5
20260507143326 48 36 4.0 0.0 0.00 0.00 0.27 86 1003.6
20260507140330 46 329 3.0 0.0 0.00 0.00 0.27 64 1003.8
20260507133320 44 280 4.0 0.0 0.00 0.00 0.27 58 1003.9
20260507130316 43 291 5.0 0.0 0.00 0.00 0.27 59 1003.8
20260507123325 43 18 4.0 0.0 0.00 0.00 0.27 59 1004.2
20260507120328 42 355 3.0 0.0 0.00 0.00 0.27 59 1004.4
20260507113330 42 23 6.0 0.0 0.00 0.00 0.27 59 1003.6
20260507110329 42 338 5.0 0.0 0.00 0.00 0.27 59 1003.5
20260507103324 42 18 4.0 0.0 0.00 0.00 0.27 59 1003.6
20260507100329 42 9 5.0 0.0 0.00 0.00 0.27 59 1003.7
20260507093331 43 5 6.0 0.0 0.00 0.00 0.27 58 1002.6
20260507090327 44 321 6.0 0.0 0.00 0.00 0.27 58 1002.8
20260507083322 44 339 5.0 0.0 0.00 0.00 0.26 57 1002.6